FW9118 Weather Reports


time (UTC)temp
C
wind
direction
speed
KPH
gust
KPH
rain 1hr
cm
rain 24hr
cm
rain mn
cm
humidity
%
barometer
mb
20220812004615 26 186 0.0 4.8 0.00 1.40 1.40 77 1016.1
20220812003113 26 125 1.6 4.8 0.00 1.40 1.40 76 1016.2
20220812001634 26 175 0.0 4.8 0.00 1.40 1.40 77 1016.2
20220812000114 26 136 3.2 12.9 0.00 1.40 1.40 80 1016.5
20220811234612 26 101 11.3 20.9 0.00 1.40 1.40 82 1016.8
20220811233119 26 0 1.6 4.8 0.00 1.40 1.40 83 1016.2
20220811231612 25 258 0.0 4.8 0.00 1.40 1.40 87 1016.1
20220811230119 25 284 1.6 9.7 0.00 1.40 1.40 87 1016.2
20220811224612 24 269 1.6 6.4 0.00 1.40 1.40 89 1016.1
20220811223111 24 267 6.4 14.5 0.00 1.40 1.40 88 1016.3
20220811221614 23 295 4.8 17.7 0.46 1.40 1.40 87 1017.1
20220811220112 23 360 1.6 6.4 0.61 1.40 1.40 86 1017.4
20220811214613 23 132 0.0 8.0 0.79 1.40 1.40 85 1017.1
20220811213109 22 212 6.4 25.7 0.79 1.40 1.40 87 1017.4
20220811211622 23 234 8.0 27.4 0.64 0.94 0.94 85 1017.9
20220811210116 23 259 9.7 27.4 0.48 0.79 0.79 82 1017.7
20220811204715 24 262 4.8 19.3 0.30 0.61 0.61 78 1017.9
20220811203211 24 279 11.3 37.0 0.30 0.61 0.61 76 1017.5
20220811201613 30 156 4.8 11.3 0.00 0.30 0.30 57 1017.5
20220811200123 31 109 1.6 4.8 0.00 0.30 0.30 52 1017.6
20220811194617 31 171 1.6 9.7 0.00 0.30 0.30 49 1017.6
20220811193117 31 178 0.0 4.8 0.00 0.30 0.30 51 1017.6
20220811191618 31 0 0.0 3.2 0.00 0.30 0.30 52 1017.9
20220811190113 31 78 0.0 8.0 0.00 0.30 0.30 49 1018.2
20220811184614 32 265 1.6 4.8 0.15 0.30 0.30 55 1018.5
20220811183133 31 169 0.0 6.4 0.30 0.30 0.30 59 1018.7
20220811181613 29 169 1.6 4.8 0.30 0.30 0.30 61 1019.1
20220811180117 25 0 0.0 6.4 0.30 0.30 0.30 82 1019.3
20220811174642 26 317 14.5 24.1 0.15 0.15 0.15 70 1020.0
20220811173115 31 346 3.2 11.3 0.00 0.00 0.00 50 1019.9
20220811171607 31 327 3.2 8.0 0.00 0.00 0.00 51 1020.0
20220811170116 31 311 6.4 14.5 0.00 0.00 0.00 50 1020.3
20220811164608 31 318 3.2 14.5 0.00 0.00 0.00 51 1020.4
20220811163115 31 105 6.4 11.3 0.00 0.00 0.00 50 1020.4
20220811161616 31 350 6.4 12.9 0.00 0.00 0.00 49 1020.5
20220811160110 30 249 3.2 9.7 0.00 0.00 0.00 53 1020.4
20220811154609 28 316 1.6 6.4 0.00 0.00 0.00 56 1020.5
20220811153117 27 0 0.0 4.8 0.00 0.00 0.00 63 1020.4
20220811151615 27 0 0.0 4.8 0.00 0.00 0.00 66 1020.4
20220811150114 26 0 0.0 4.8 0.00 0.00 0.00 68 1020.3
20220811144612 26 0 0.0 3.2 0.00 0.00 0.00 69 1020.4
20220811143115 26 251 1.6 4.8 0.00 0.00 0.00 70 1020.1
20220811141612 26 338 1.6 3.2 0.00 0.00 0.00 71 1020.1
20220811140110 26 0 0.0 3.2 0.00 0.00 0.00 72 1020.0
20220811134612 25 0 1.6 6.4 0.00 0.00 0.00 75 1019.6
20220811133219 25 240 0.0 4.8 0.00 0.00 0.00 77 1019.6
20220811131613 24 0 0.0 4.8 0.00 0.00 0.00 78 1019.6
20220811130109 24 207 0.0 3.2 0.00 0.00 0.00 79 1019.4
20220811124609 23 0 0.0 4.8 0.00 0.00 0.00 79 1019.2
20220811123111 23 269 0.0 3.2 0.00 0.00 0.00 79 1019.3
20220811121613 23 0 0.0 0.0 0.00 0.00 0.00 80 1019.3
20220811120108 23 0 0.0 6.4 0.00 0.00 0.00 80 1019.2
20220811114611 23 252 0.0 1.6 0.00 0.00 0.00 80 1019.3
20220811113138 23 252 0.0 3.2 0.00 0.00 0.00 79 1019.1
20220811111608 23 0 0.0 4.8 0.00 0.00 0.00 79 1019.1
20220811110115 23 261 1.6 4.8 0.00 0.00 0.00 79 1019.1
20220811104611 23 250 1.6 4.8 0.00 0.00 0.00 78 1019.2
20220811103109 23 259 1.6 8.0 0.00 0.00 0.00 78 1019.1
20220811101608 24 250 0.0 4.8 0.00 0.00 0.00 78 1019.3
20220811100117 24 0 0.0 4.8 0.00 0.00 0.00 77 1019.4
20220811094621 23 0 1.6 4.8 0.00 0.00 0.00 77 1019.3
20220811093113 23 186 0.0 6.4 0.00 0.00 0.00 77 1019.6
20220811091625 23 0 0.0 6.4 0.00 0.00 0.00 77 1019.7
20220811090106 23 0 0.0 0.0 0.00 0.00 0.00 76 1019.8
20220811084607 23 0 0.0 3.2 0.00 0.00 0.00 76 1019.7
20220811083113 23 0 0.0 3.2 0.00 0.00 0.00 76 1019.6
20220811081617 23 0 0.0 1.6 0.00 0.00 0.00 77 1019.6
20220811080118 23 0 0.0 3.2 0.00 0.00 0.00 76 1019.9
20220811074610 24 0 0.0 6.4 0.00 0.00 0.00 75 1020.2
20220811073112 24 101 0.0 4.8 0.00 0.00 0.00 75 1020.3
20220811071624 24 178 0.0 8.0 0.00 0.00 0.00 76 1020.4
20220811070115 24 126 1.6 9.7 0.00 0.00 0.00 75 1020.6
20220811064609 24 142 1.6 12.9 0.00 0.00 0.00 75 1020.7
20220811063131 24 202 3.2 11.3 0.00 0.00 0.00 74 1020.7
20220811061607 24 131 3.2 9.7 0.00 0.00 0.00 73 1020.8
20220811060118 23 0 0.0 1.6 0.00 0.00 0.00 72 1020.8
20220811054605 23 0 0.0 0.0 0.00 0.00 0.00 71 1020.5
20220811053107 24 0 0.0 0.0 0.00 0.00 0.00 69 1020.5
20220811051644 24 0 0.0 1.6 0.00 0.00 0.00 69 1020.4
20220811050115 25 0 0.0 4.8 0.00 0.00 0.00 68 1020.3
20220811044607 25 131 0.0 3.2 0.00 0.00 0.00 68 1020.5
20220811043113 25 106 1.6 3.2 0.00 0.00 0.00 67 1020.6
20220811041610 25 106 1.6 3.2 0.00 0.00 0.00 66 1020.7
20220811040138 26 0 0.0 6.4 0.00 0.00 0.00 65 1020.6
20220811034619 26 88 4.8 8.0 0.00 0.00 0.00 64 1020.5
20220811033210 26 115 4.8 11.3 0.00 0.00 0.00 64 1020.3
20220811032427 26 89 3.2 11.3 0.00 0.00 0.00 64 1020.4
20220811030108 26 50 1.6 11.3 0.00 0.00 0.00 64 1020.4
20220811024604 26 76 4.8 9.7 0.00 0.00 0.00 65 1020.0
20220811023112 27 90 3.2 6.4 0.00 0.00 0.00 64 1019.7
20220811021608 27 0 1.6 8.0 0.00 0.00 0.00 63 1019.6
20220811020109 27 82 4.8 8.0 0.00 0.00 0.00 62 1019.4
20220811014613 27 51 3.2 6.4 0.00 0.00 0.00 61 1019.3
20220811013109 28 25 3.2 9.7 0.00 0.00 0.00 60 1019.1
20220811011607 28 15 3.2 8.0 0.00 0.00 0.00 59 1019.0
20220811010111 28 19 3.2 9.7 0.00 0.00 0.00 59 1018.9